TimeMDT,TemperatureF,Dew PointF,Humidity,Sea Level PressureIn,VisibilityMPH,Wind Direction,Wind SpeedMPH,Gust SpeedMPH,PrecipitationIn,Events,Conditions,WindDirDegrees,DateUTC
12:56 AM,46.9,36.9,68,29.88,10.0,South,8.1,-,N/A,,Scattered Clouds,180,2012-10-16 06:56:00
1:56 AM,46.9,36.9,68,29.87,10.0,South,10.4,-,N/A,,Clear,170,2012-10-16 07:56:00
2:56 AM,46.9,36.9,68,29.86,10.0,SSE,11.5,-,N/A,,Clear,160,2012-10-16 08:56:00
3:56 AM,50.9,37.9,61,29.79,10.0,South,9.2,-,N/A,,Overcast,170,2012-10-16 09:56:00
4:56 AM,50.9,37.9,61,29.76,10.0,South,10.4,-,0.00,Rain,Light Rain,180,2012-10-16 10:56:00
5:56 AM,45.9,41.9,86,29.77,10.0,SSE,9.2,-,0.02,Rain,Light Rain,160,2012-10-16 11:56:00
6:56 AM,45.9,43.9,93,29.78,10.0,SSE,8.1,-,0.00,,Overcast,150,2012-10-16 12:56:00
7:56 AM,45.9,43.0,90,29.73,10.0,South,12.7,-,0.01,Rain,Light Rain,170,2012-10-16 13:56:00
8:41 AM,46.4,42.8,87,29.87,5.0,South,13.8,-,0.04,Rain,Light Rain,170,2012-10-16 14:41:00
8:56 AM,45.9,43.9,93,29.70,5.0,South,13.8,-,0.06,Rain,Light Rain,170,2012-10-16 14:56:00
9:48 AM,46.4,44.6,93,29.82,2.5,SSE,18.4,-,0.01,Rain,Light Rain,160,2012-10-16 15:48:00
9:56 AM,46.9,45.0,93,29.67,2.0,SSE,15.0,-,0.02,Rain,Light Rain,160,2012-10-16 15:56:00
10:12 AM,46.4,44.6,93,29.83,3.0,South,15.0,-,0.00,Rain,Light Rain,180,2012-10-16 16:12:00
10:46 AM,46.4,46.4,100,29.82,8.0,South,17.3,-,0.01,,Overcast,180,2012-10-16 16:46:00
10:56 AM,47.8,45.9,93,29.65,6.0,South,19.6,-,0.01,Rain,Light Rain,190,2012-10-16 16:56:00
11:56 AM,50.0,45.0,83,29.60,10.0,SSW,20.7,-,0.00,,Overcast,200,2012-10-16 17:56:00
12:40 PM,53.6,46.4,77,29.74,10.0,South,24.2,-,N/A,,Mostly Cloudy,190,2012-10-16 18:40:00
12:56 PM,52.0,45.0,77,29.56,10.0,SSW,23.0,-,N/A,,Mostly Cloudy,200,2012-10-16 18:56:00
1:59 PM,50.0,46.4,87,29.69,2.5,West,18.4,-,0.00,Rain,Rain,260,2012-10-16 19:59:00
2:04 PM,50.0,46.4,87,29.71,2.0,West,23.0,-,0.01,Rain-Thunderstorm,Light Thunderstorms and Rain,270,2012-10-16 20:04:00
2:07 PM,50.0,44.6,82,29.69,1.5,WSW,26.5,-,0.03,Rain-Thunderstorm,Rain,250,2012-10-16 20:07:00
2:11 PM,48.2,44.6,87,29.69,2.0,WSW,17.3,-,0.03,Rain-Thunderstorm,Light Thunderstorms and Rain,250,2012-10-16 20:11:00
2:15 PM,48.2,44.6,87,29.70,4.0,WSW,15.0,-,0.03,Rain-Thunderstorm,Light Thunderstorms and Rain,250,2012-10-16 20:15:00
2:56 PM,50.0,41.0,71,29.55,10.0,WSW,9.2,-,0.03,Rain,Light Rain,240,2012-10-16 20:56:00
3:56 PM,54.0,41.0,62,29.54,10.0,SW,18.4,-,0.00,,Scattered Clouds,230,2012-10-16 21:56:00
4:56 PM,52.0,38.8,61,29.53,10.0,SW,28.8,-,N/A,Thunderstorm,Mostly Cloudy,220,2012-10-16 22:56:00
5:28 PM,46.4,39.2,76,29.75,10.0,NNW,10.4,-,0.00,Rain-Thunderstorm,Light Thunderstorms and Rain,330,2012-10-16 23:28:00
5:56 PM,45.0,36.9,73,29.63,10.0,NW,6.9,-,0.01,Thunderstorm,Thunderstorm,310,2012-10-16 23:56:00
6:14 PM,46.4,35.6,66,29.79,10.0,NW,10.4,-,N/A,,Partly Cloudy,310,2012-10-17 00:14:00
6:56 PM,43.9,32.0,63,29.67,10.0,West,8.1,-,N/A,,Mostly Cloudy,270,2012-10-17 00:56:00
7:56 PM,41.0,26.1,55,29.73,10.0,Variable,3.5,-,N/A,,Clear,0,2012-10-17 01:56:00
8:56 PM,38.8,24.1,55,29.78,10.0,Variable,4.6,-,N/A,,Partly Cloudy,0,2012-10-17 02:56:00
9:56 PM,36.9,21.0,53,29.83,10.0,NW,4.6,-,N/A,,Clear,320,2012-10-17 03:56:00
10:56 PM,34.0,18.1,52,29.87,10.0,NNW,8.1,-,N/A,,Clear,330,2012-10-17 04:56:00
11:56 PM,32.9,17.1,52,29.89,10.0,NNE,4.6,-,N/A,,Overcast,30,2012-10-17 05:56:00